COSMOS 2251 DEB, 34752

Orbit data source: Space-Track

COSMOS 2251 DEB, 34752 is space debris in LEO originally from a launch on Wed, 16 Jun 1993 UTC launched from the Plesetsk Missile And Space Complex (PKMTR). The debris from Iridium 33, an American commercial communications satellite, has been tracked extensively since its accidental collision with the defunct Russian satellite Cosmos 2251 in 2009. This event, occurring at high speed in low Earth orbit (LEO), generated thousands of pieces of space debris, significantly increasing the risk of further collisions. The Iridium 33 debris cloud has impacted space traffic management and orbital debris mitigation strategies, making it a subject of ongoing study in space situational awareness.

Loading next visibility...
Identifier
34752, 1993-036ZW
Orbit
LEO
Country
Flag of CISCIS
Related business
Manufacturer
Unknown
Mission
Spacecraft
Bus & Motor
Unknown
Mass
Unknown
Launch date (UTC)
1993-06-16 (32 years ago)
Launch vehicle
Unknown
Launch site
Plesetsk Missile And Space Complex (PKMTR)
Object type
Payload
Rocket body
Debris
Shape & HBR
Unknown shape, 0.1 m
Radar Cross Section
Small (<0.1 m²)

Expand to show TLE details & history
Last TLE update: 8 hours ago

TLE from 8 hours ago
0 COSMOS 2251 DEB
1 34752U 93036ZW  25299.86218284  .00017794  00000-0  14628-2 0  9999
2 34752  74.0126  95.8721 0053422 235.9199 123.6911 14.97998053891476
Epoch: 2025-10-26T20:41Z
TLE epoch observation values (Epoch: 2025-10-26T20:41:32.597Z)
Latitude
0.00002°
Longitude
110.01399°
Altitude
596.507 km
Speed
7.55 km/s
True Right ascension
06h 23m 29s
True Declination
0° 00' 00"
Sunlit
Object was in full shadow at epoch
Visualization orbit readout
Latitude
Unknown
Longitude
Unknown
Altitude
Unknown
Speed
Unknown
Apparent Right ascension
Unknown
Apparent Declination
Unknown
Sunlit
N/A
Visualization observer readout
Local Sidereal Time
23:38:10
Azimuth
Unknown
Elevation
Unknown
Doppler factor
Unknown
Orbital elements
Apogee altitude
607.762 km
Perigee altitude
533.519 km
Semi-major axis
6,948.777 km
Eccentricity
0.00534
Inclination
74.0126°
RAAN
95.8721°
Arg. of periapsis
235.9199°
True anomaly
124.19856°
Mean anomaly
123.6911°
Eccentric anomaly
123.94502°
Mean motion
3.74697 °/min
Orbital period
96.08 mins
BSTAR
0.0014628
Loading maneuver chart data...
Computing Atmospheric mass density...

Documentation

Showing up to 5 results
|